DW4682 Rouen FR current weather conditions

sailwx.info

Wind from 293 at 5 knots gusting 5

Air temperature 19.4° C
Dewpoint 14.0° C

Last reported at 2020-Jul-10 12:01 UTC.
Time now 2020-Jul-10 12:25 UTC

Location: N 49°11' E 000°53'.
View on Google Maps.

See reports from other nearby stations

  
Tides and Currents Weather Stations Pressure Air Temp Water Temp Dewpoint Dewpoint Depression Visibility Wind Speed Wind Dir Waves Ship Positions
date/time (UTC)wind fromknots sea level pressurealtimeterstation pressurevisibilityair tempwater tempwave heightnotes
2020-Jul-10 12:06 293 5 gusting 6 19.4
2020-Jul-10 12:01 293 5 gusting 5 19.4
2020-Jul-10 11:56 315 5 gusting 5 19.4
2020-Jul-10 11:51 293 5 gusting 7 19.4
2020-Jul-10 11:46 338 5 gusting 6 18.9
2020-Jul-10 11:41 338 5 gusting 10 18.9
2020-Jul-10 11:36 338 5 gusting 6 18.3
2020-Jul-10 11:31 270 4 gusting 4 18.3
2020-Jul-10 11:26 293 4 gusting 5 18.3
2020-Jul-10 11:21 293 4 gusting 6 18.3
2020-Jul-10 11:16 293 5 gusting 6 18.3
2020-Jul-10 11:11 315 5 gusting 5 18.3
2020-Jul-10 11:06 293 4 gusting 6 18.3
2020-Jul-10 11:01 18.3
2020-Jul-10 10:56 270 3 gusting 3 17.8
2020-Jul-10 10:55 293 3 gusting 4 17.8
2020-Jul-10 10:49 270 3 gusting 3 17.8
2020-Jul-10 10:44 270 4 gusting 4 17.2
2020-Jul-10 10:39 270 6 gusting 6 17.8
2020-Jul-10 10:34 293 5 gusting 10 17.8
2020-Jul-10 10:29 293 3 gusting 6 18.3
2020-Jul-10 10:23 270 3 gusting 3 17.8
2020-Jul-10 10:18 315 4 gusting 4 17.8
2020-Jul-10 10:13 270 4 gusting 4 17.2
2020-Jul-10 10:08 293 4 gusting 4 17.2
2020-Jul-10 10:03 293 4 gusting 4 17.2
2020-Jul-10 09:58 270 4 gusting 6 17.2
2020-Jul-10 09:53 293 4 gusting 4 16.7
2020-Jul-10 09:47 293 4 gusting 4 16.7
2020-Jul-10 09:42 270 4 gusting 5 16.7
2020-Jul-10 09:37 293 4 gusting 4 16.7
2020-Jul-10 09:32 338 5 gusting 5 16.7
2020-Jul-10 09:27 293 6 gusting 6 16.7
2020-Jul-10 09:22 315 5 gusting 5 16.7
2020-Jul-10 09:17 293 4 gusting 4 16.7
2020-Jul-10 09:12 293 4 gusting 6 16.7
2020-Jul-10 09:07 293 4 gusting 10 16.7
2020-Jul-10 09:02 270 5 gusting 5 16.1
2020-Jul-10 08:56 293 6 gusting 6 16.1
2020-Jul-10 08:51 293 5 gusting 5 16.1
2020-Jul-10 08:46 293 3 gusting 6 16.1
2020-Jul-10 08:41 293 3 gusting 7 16.7
2020-Jul-10 08:36 293 3 gusting 3 16.7
2020-Jul-10 08:31 270 3 gusting 3 16.7
2020-Jul-10 08:26 270 3 gusting 3 16.7
2020-Jul-10 08:21 293 4 gusting 4 16.7
2020-Jul-10 08:15 315 5 gusting 5 16.7
2020-Jul-10 08:10 293 4 gusting 4 16.7
2020-Jul-10 08:05 315 3 gusting 6 16.1
2020-Jul-10 08:00 293 3 gusting 3 16.1
2020-Jul-10 07:55 293 4 gusting 4 16.1
2020-Jul-10 07:50 338 4 gusting 5 15.6
2020-Jul-10 07:45 305 4 gusting 7 15.6
2020-Jul-10 07:40 293 3 gusting 6 15.6
2020-Jul-10 07:35 293 4 gusting 4 15.6
2020-Jul-10 07:30 293 5 gusting 5 15.6
2020-Jul-10 07:25 293 5 gusting 8 16.1
2020-Jul-10 07:20 270 4 gusting 5 16.1
2020-Jul-10 07:15 16.7
2020-Jul-10 07:10 270 5 gusting 5 16.7
2020-Jul-10 07:05 248 4 gusting 5 16.7
2020-Jul-10 07:00 255 4 gusting 8 16.7
2020-Jul-10 06:55 249 3 gusting 8 16.7
2020-Jul-10 06:50 240 3 gusting 6 16.7
2020-Jul-10 06:45 252 3 gusting 8 16.7
2020-Jul-10 06:40 264 2 gusting 6 16.1
2020-Jul-10 06:35 245 2 gusting 6 16.1
2020-Jul-10 06:30 293 3 gusting 3 16.1
2020-Jul-10 06:25 271 4 gusting 7 16.1
2020-Jul-10 06:20 269 3 gusting 9 15.6
2020-Jul-10 06:15 258 3 gusting 6 15.6
2020-Jul-10 06:09 248 3 gusting 3 15.6
2020-Jul-10 06:04 293 3 gusting 5 15.6
2020-Jul-10 05:59 293 4 gusting 4 15.6
2020-Jul-10 05:54 270 3 gusting 5 15.6
2020-Jul-10 05:49 293 3 gusting 3 15.6
2020-Jul-10 05:44 293 3 gusting 6 15.6
2020-Jul-10 05:39 315 3 gusting 5 15.6
2020-Jul-10 05:34 248 2 gusting 2 15.6
2020-Jul-10 05:29 248 2 gusting 2 15.6
2020-Jul-10 05:24 270 2 gusting 4 15.6
2020-Jul-10 05:19 270 2 gusting 3 15.6
2020-Jul-10 05:14 293 2 gusting 2 15.0
2020-Jul-10 05:09 270 3 gusting 3 15.0
2020-Jul-10 05:04 270 3 gusting 6 15.6
2020-Jul-10 04:59 293 3 gusting 5 15.6
2020-Jul-10 04:54 293 4 gusting 4 15.6
2020-Jul-10 04:49 270 5 gusting 5 15.6
2020-Jul-10 04:44 248 4 gusting 8 15.6
2020-Jul-10 04:39 270 4 gusting 5 15.6
2020-Jul-10 04:34 248 3 gusting 3 15.6
2020-Jul-10 04:29 270 3 gusting 3 15.6
2020-Jul-10 04:23 248 3 gusting 4 15.6
2020-Jul-10 04:18 270 3 gusting 4 15.6
2020-Jul-10 04:13 248 3 gusting 6 16.1
2020-Jul-10 04:08 270 4 gusting 4 16.1
2020-Jul-10 04:03 225 4 gusting 4 16.1
2020-Jul-10 03:58 270 4 gusting 5 16.1
2020-Jul-10 03:53 270 4 gusting 5 16.1
2020-Jul-10 03:48 225 4 gusting 7 16.1
2020-Jul-10 03:43 248 4 gusting 4 16.1
2020-Jul-10 03:38 225 4 gusting 4 16.1
2020-Jul-10 03:33 248 4 gusting 6 16.1
2020-Jul-10 03:28 225 3 gusting 4 16.1
2020-Jul-10 03:23 270 3 gusting 3 16.1
2020-Jul-10 03:18 225 4 gusting 4 16.1
2020-Jul-10 03:13 270 4 gusting 8 16.1
2020-Jul-10 03:08 248 4 gusting 4 16.1
2020-Jul-10 03:03 270 4 gusting 4 16.1
2020-Jul-10 02:58 270 3 gusting 3 16.1
2020-Jul-10 02:53 225 3 gusting 6 16.1
2020-Jul-10 02:48 270 4 gusting 4 16.1
2020-Jul-10 02:43 248 4 gusting 4 16.7
2020-Jul-10 02:38 225 3 gusting 6 16.7
2020-Jul-10 02:33 270 4 gusting 4 16.7
2020-Jul-10 02:28 248 4 gusting 4 16.7
2020-Jul-10 02:23 248 3 gusting 8 16.7
2020-Jul-10 02:18 293 4 gusting 4 16.7
2020-Jul-10 02:13 270 4 gusting 4 16.7
2020-Jul-10 02:08 270 4 gusting 4 16.7
2020-Jul-10 02:03 225 4 gusting 6 16.7
2020-Jul-10 01:58 248 4 gusting 4 16.7
2020-Jul-10 01:53 270 4 gusting 6 16.7
2020-Jul-10 01:48 315 3 gusting 7 16.7
2020-Jul-10 01:43 315 3 gusting 3 16.7
2020-Jul-10 01:38 293 3 gusting 3 16.7
2020-Jul-10 01:33 270 4 gusting 4 16.7
2020-Jul-10 01:28 293 4 gusting 5 16.7
2020-Jul-10 01:23 270 4 gusting 7 16.7
2020-Jul-10 01:18 270 5 gusting 5 16.7
2020-Jul-10 01:13 248 5 gusting 5 16.7
2020-Jul-10 01:10 270 5 gusting 5 16.7
2020-Jul-10 01:04 248 5 gusting 5 16.7
2020-Jul-10 00:59 248 4 gusting 4 16.7
2020-Jul-10 00:54 248 5 gusting 5 16.7
2020-Jul-10 00:49 225 6 gusting 7 16.7
2020-Jul-10 00:44 270 6 gusting 8 17.2
2020-Jul-10 00:39 270 6 gusting 6 17.2
2020-Jul-10 00:34 248 5 gusting 5 17.2
2020-Jul-10 00:29 248 5 gusting 9 17.2
2020-Jul-10 00:24 248 4 gusting 7 17.2
2020-Jul-10 00:19 293 3 gusting 6 17.2
2020-Jul-10 00:14 248 3 gusting 8 17.2
2020-Jul-10 00:09 270 3 gusting 6 17.2
2020-Jul-10 00:04 270 2 gusting 4 17.8
2020-Jul-09 23:59 270 3 gusting 4 17.8
2020-Jul-09 23:54 270 4 gusting 4 17.8
2020-Jul-09 23:49 248 4 gusting 5 17.8
2020-Jul-09 23:44 225 4 gusting 7 17.8
2020-Jul-09 23:39 270 3 gusting 6 17.8
2020-Jul-09 23:34 270 3 gusting 6 17.8
2020-Jul-09 23:29 270 3 gusting 3 17.8
2020-Jul-09 23:24 270 3 gusting 3 17.8
2020-Jul-09 23:19 270 4 gusting 4 18.3
2020-Jul-09 23:14 248 5 gusting 6 18.3
2020-Jul-09 23:09 225 4 gusting 4 18.3
2020-Jul-09 23:04 248 4 gusting 5 18.3
2020-Jul-09 22:59 270 5 gusting 8 18.3
2020-Jul-09 22:54 270 4 gusting 4 18.3
2020-Jul-09 22:49 270 5 gusting 5 18.3
2020-Jul-09 22:44 293 5 gusting 6 18.3
2020-Jul-09 22:39 270 4 gusting 6 18.3
2020-Jul-09 22:34 270 4 gusting 7 18.3
2020-Jul-09 22:29 270 3 gusting 3 18.3
2020-Jul-09 22:24 270 4 gusting 5 18.3
2020-Jul-09 22:19 248 3 gusting 3 18.3
2020-Jul-09 22:14 293 4 gusting 4 18.3
2020-Jul-09 22:09 270 4 gusting 4 18.9
2020-Jul-09 22:04 248 4 gusting 6 18.9
2020-Jul-09 21:57 270 3 gusting 4 18.9
2020-Jul-09 21:52 293 4 gusting 4 18.9
2020-Jul-09 21:47 293 4 gusting 5 18.9
2020-Jul-09 21:42 270 3 gusting 6 18.9
2020-Jul-09 21:37 293 3 gusting 3 18.9
2020-Jul-09 21:32 270 3 gusting 3 18.9
2020-Jul-09 21:27 293 3 gusting 3 18.9
2020-Jul-09 21:22 293 3 gusting 3 18.9
2020-Jul-09 21:20 270 3 gusting 6 18.9
2020-Jul-09 21:14 270 3 gusting 3 18.9
2020-Jul-09 21:09 293 3 gusting 5 18.9
2020-Jul-09 21:04 293 3 gusting 3 18.9
2020-Jul-09 20:59 270 3 gusting 3 18.3
2020-Jul-09 20:54 248 3 gusting 3 18.3
2020-Jul-09 20:49 293 3 gusting 3 18.3
2020-Jul-09 20:44 293 2 gusting 6 18.3
2020-Jul-09 20:39 293 3 gusting 3 18.9
2020-Jul-09 20:33 293 3 gusting 4 18.9
2020-Jul-09 20:28 293 3 gusting 4 18.9
2020-Jul-09 20:23 293 4 gusting 4 18.9
2020-Jul-09 20:18 18.9
2020-Jul-09 20:13 315 5 gusting 5 18.9
2020-Jul-09 20:08 293 4 gusting 4 19.4
2020-Jul-09 20:03 293 3 gusting 5 19.4
2020-Jul-09 19:58 293 3 gusting 3 19.4
2020-Jul-09 19:53 293 3 gusting 5 19.4
2020-Jul-09 19:47 248 4 gusting 4 20.0
2020-Jul-09 19:42 293 4 gusting 4 20.0
2020-Jul-09 19:37 270 4 gusting 4 20.0
2020-Jul-09 19:32 293 5 gusting 5 20.6
2020-Jul-09 19:27 293 5 gusting 7 20.6
2020-Jul-09 19:22 338 5 gusting 6 21.1
2020-Jul-09 19:17 293 5 gusting 9 21.1
2020-Jul-09 19:12 315 6 gusting 6 21.7
2020-Jul-09 19:07 293 6 gusting 6 22.2
2020-Jul-09 19:01 293 6 gusting 7 22.8
2020-Jul-09 18:56 315 5 gusting 7 22.8
2020-Jul-09 18:51 270 6 gusting 6 23.3
2020-Jul-09 18:46 293 6 gusting 6 23.3
2020-Jul-09 18:41 315 6 gusting 7 23.9
2020-Jul-09 18:36 315 6 gusting 8 24.4
2020-Jul-09 18:31 293 6 gusting 7 25.0
2020-Jul-09 18:26 293 6 gusting 6 25.0
2020-Jul-09 18:21 293 6 gusting 6 25.0
2020-Jul-09 18:16 293 6 gusting 7 25.0
2020-Jul-09 18:11 293 5 gusting 6 25.0
2020-Jul-09 18:06 293 5 gusting 6 25.0
2020-Jul-09 18:01 293 5 gusting 6 25.6
2020-Jul-09 17:56 293 5 gusting 9 25.6
2020-Jul-09 17:51 293 4 gusting 6 26.1
2020-Jul-09 17:46 270 3 gusting 5 26.7
2020-Jul-09 17:41 293 3 gusting 4 26.7
2020-Jul-09 17:36 293 3 gusting 6 26.7
2020-Jul-09 17:31 293 2 gusting 3 26.7
2020-Jul-09 17:26 270 2 gusting 2 27.2
2020-Jul-09 17:21 315 3 gusting 3 27.2
2020-Jul-09 17:16 293 2 gusting 3 27.8
2020-Jul-09 17:11 270 3 gusting 3 27.8
2020-Jul-09 17:06 315 5 gusting 5 28.3
2020-Jul-09 17:01 315 6 gusting 6 28.9
2020-Jul-09 16:56 293 6 gusting 6 28.9
2020-Jul-09 16:51 270 6 gusting 9 29.4
2020-Jul-09 16:50 228 6 gusting 10 29.4
2020-Jul-09 16:45 280 6 gusting 10 30.0
2020-Jul-09 16:40 225 5 gusting 5 30.0
2020-Jul-09 16:34 225 3 gusting 9 30.0
2020-Jul-09 16:29 293 2 gusting 2 29.4
2020-Jul-09 16:24 248 3 gusting 3 29.4
2020-Jul-09 16:19 248 4 gusting 5 28.9
2020-Jul-09 16:14 270 3 gusting 3 28.3
2020-Jul-09 16:09 293 3 gusting 3 28.3
2020-Jul-09 16:04 270 2 gusting 2 28.9
2020-Jul-09 15:59 293 2 gusting 2 28.9
2020-Jul-09 15:54 270 3 gusting 4 28.9
2020-Jul-09 15:49 293 3 gusting 4 28.3
2020-Jul-09 15:44 225 5 gusting 5 28.3
2020-Jul-09 15:39 270 6 gusting 6 27.8
2020-Jul-09 15:34 270 6 gusting 6 28.3
2020-Jul-09 15:29 248 7 gusting 7 27.8
2020-Jul-09 15:24 270 6 gusting 15 27.8
2020-Jul-09 15:19 248 5 gusting 10 28.3
2020-Jul-09 15:14 270 5 gusting 6 28.3
2020-Jul-09 15:09 248 5 gusting 5 28.3
2020-Jul-09 15:04 248 6 gusting 6 28.3
2020-Jul-09 14:59 225 6 gusting 8 28.3
2020-Jul-09 14:54 270 6 gusting 6 28.9
2020-Jul-09 14:49 248 6 gusting 11 28.9
2020-Jul-09 14:44 270 7 gusting 7 28.9
2020-Jul-09 14:38 225 7 gusting 10 28.9
2020-Jul-09 14:34 270 7 gusting 10 29.4
2020-Jul-09 14:28 248 8 gusting 9 29.4
2020-Jul-09 14:23 248 8 gusting 11 29.4
2020-Jul-09 14:18 248 7 gusting 10 29.4
2020-Jul-09 14:13 270 7 gusting 7 30.0
2020-Jul-09 14:08 248 8 gusting 8 29.4
2020-Jul-09 14:03 225 8 gusting 8 29.4
2020-Jul-09 13:58 225 7 gusting 9 29.4
2020-Jul-09 13:53 293 7 gusting 7 29.4
2020-Jul-09 13:48 248 8 gusting 8 29.4
2020-Jul-09 13:43 225 7 gusting 10 29.4
2020-Jul-09 13:38 203 6 gusting 6 28.9
2020-Jul-09 13:33 203 6 gusting 6 28.9
2020-Jul-09 13:28 203 6 gusting 6 28.9
2020-Jul-09 13:23 248 6 gusting 6 28.9
2020-Jul-09 13:17 270 7 gusting 7 28.9
2020-Jul-09 13:12 248 8 gusting 8 28.3
2020-Jul-09 13:07 225 7 gusting 11 28.3
2020-Jul-09 13:02 248 8 gusting 12 27.8
2020-Jul-09 12:57 225 8 gusting 8 27.8
2020-Jul-09 12:52 225 6 gusting 13 27.8
2020-Jul-09 12:47 225 7 gusting 7 27.8
2020-Jul-09 12:42 225 8 gusting 9 27.8
2020-Jul-09 12:37 203 6 gusting 14 28.3
2020-Jul-09 12:31 225 6 gusting 7 28.3
2020-Jul-09 12:26 225 7 gusting 8 27.8
2020-Jul-09 12:21 225 6 gusting 9 27.8
2020-Jul-09 12:16 225 6 gusting 8 27.8
2020-Jul-09 12:11 225 7 gusting 7 27.8
2020-Jul-09 12:10 211 6 gusting 15 27.8
2020-Jul-09 12:05 203 6 gusting 15 27.8
2020-Jul-09 12:00 225 6 gusting 6 27.2
2020-Jul-09 11:55 225 6 gusting 9 27.2
2020-Jul-09 11:50 225 6 gusting 8 27.2
2020-Jul-09 11:40 270 5 gusting 12 27.2
2020-Jul-09 11:34 225 6 gusting 6 26.7
2020-Jul-09 11:30 225 6 gusting 8 26.7
2020-Jul-09 11:24 225 5 gusting 10 26.7
2020-Jul-09 11:19 203 5 gusting 6 26.7
2020-Jul-09 11:14 270 6 gusting 7 26.7
2020-Jul-09 11:09 203 5 gusting 6 26.1
2020-Jul-09 11:04 248 5 gusting 5 26.1
2020-Jul-09 10:59 270 6 gusting 6 26.1
2020-Jul-09 10:54 225 5 gusting 6 26.1
2020-Jul-09 10:49 293 5 gusting 6 25.6
2020-Jul-09 10:43 203 6 gusting 6 25.6
2020-Jul-09 10:39 248 5 gusting 5 25.6
2020-Jul-09 10:34 225 4 gusting 5 25.0
2020-Jul-09 10:29 248 4 gusting 5 25.0
2020-Jul-09 10:24 293 5 gusting 8 25.0
2020-Jul-09 10:19 225 5 gusting 8 24.4
2020-Jul-09 10:14 270 4 gusting 9 25.0
2020-Jul-09 10:08 225 4 gusting 4 24.4
2020-Jul-09 10:04 293 3 gusting 6 24.4
2020-Jul-09 09:59 248 4 gusting 5 23.9
2020-Jul-09 09:54 270 4 gusting 5 23.9
2020-Jul-09 09:49 248 4 gusting 5 23.9
2020-Jul-09 09:44 248 5 gusting 7 23.9
2020-Jul-09 09:39 270 5 gusting 5 23.9
2020-Jul-09 09:34 248 5 gusting 8 23.9
2020-Jul-09 09:29 225 5 gusting 6 23.3
2020-Jul-09 09:24 225 5 gusting 5 23.3
2020-Jul-09 09:19 225 5 gusting 5 23.3
2020-Jul-09 09:14 248 5 gusting 7 23.3
2020-Jul-09 09:09 203 5 gusting 9 22.8
2020-Jul-09 09:04 248 3 gusting 5 22.8
2020-Jul-09 08:59 248 3 gusting 3 22.8
2020-Jul-09 08:54 225 4 gusting 4 22.8
2020-Jul-09 08:50 225 3 gusting 4 22.2
2020-Jul-09 08:44 225 3 gusting 8 22.2
2020-Jul-09 08:39 270 4 gusting 4 21.7
2020-Jul-09 08:34 248 4 gusting 4 21.7
2020-Jul-09 08:29 248 4 gusting 7 21.7
2020-Jul-09 08:24 270 4 gusting 5 21.7
2020-Jul-09 08:19 270 3 gusting 7 21.7
2020-Jul-09 08:14 270 4 gusting 4 21.1
2020-Jul-09 08:09 270 3 gusting 4 21.1
2020-Jul-09 08:05 270 3 gusting 4 21.1
2020-Jul-09 07:59 270 3 gusting 4 21.1
2020-Jul-09 07:55 270 4 gusting 6 21.1
2020-Jul-09 07:49 248 3 gusting 5 20.6
2020-Jul-09 07:44 225 3 gusting 3 20.6
2020-Jul-09 07:39 270 4 gusting 4 20.6
2020-Jul-09 07:35 234 3 gusting 10 20.6
2020-Jul-09 07:30 242 3 gusting 6 20.0
2020-Jul-09 07:24 248 3 gusting 4 20.0
2020-Jul-09 07:19 225 3 gusting 3 19.4
2020-Jul-09 07:14 248 4 gusting 5 19.4
2020-Jul-09 07:09 248 3 gusting 6 19.4
2020-Jul-09 07:04 248 3 gusting 3 19.4
2020-Jul-09 06:59 225 3 gusting 4 18.9
2020-Jul-09 06:54 248 4 gusting 4 18.9
2020-Jul-09 06:49 225 4 gusting 4 18.3
2020-Jul-09 06:44 248 3 gusting 6 18.3
2020-Jul-09 06:39 225 3 gusting 3 18.3
2020-Jul-09 06:34 225 2 gusting 4 18.3
2020-Jul-09 06:29 225 2 gusting 2 17.8
2020-Jul-09 06:24 225 3 gusting 3 17.8
2020-Jul-09 06:19 225 3 gusting 3 17.2
2020-Jul-09 06:14 225 3 gusting 3 17.2
2020-Jul-09 06:09 225 2 gusting 4 17.2
2020-Jul-09 06:04 225 2 gusting 2 17.2
2020-Jul-09 05:59 225 3 gusting 3 16.7
2020-Jul-09 05:53 270 3 gusting 5 16.7
2020-Jul-09 05:48 225 4 gusting 4 16.7
2020-Jul-09 05:43 248 4 gusting 5 16.7
2020-Jul-09 05:38 225 3 gusting 3 16.7
2020-Jul-09 05:33 203 3 gusting 3 16.7
2020-Jul-09 05:28 225 3 gusting 3 16.7
2020-Jul-09 05:23 225 3 gusting 5 16.7
2020-Jul-09 05:18 225 2 gusting 3 16.7
2020-Jul-09 05:13 225 3 gusting 3 16.1
2020-Jul-09 05:08 225 3 gusting 3 16.1
2020-Jul-09 05:03 225 4 gusting 6 16.1
2020-Jul-09 04:58 248 3 gusting 6 16.1
2020-Jul-09 04:53 270 3 gusting 5 16.1
2020-Jul-09 04:48 270 2 gusting 3 16.1
2020-Jul-09 04:43 248 1 gusting 2 16.1
2020-Jul-09 04:38 248 2 gusting 2 16.1
2020-Jul-09 04:33 248 2 gusting 2 16.1
2020-Jul-09 04:28 225 3 gusting 3 16.1
2020-Jul-09 04:23 270 4 gusting 4 16.1
2020-Jul-09 04:18 225 3 gusting 7 16.1
2020-Jul-09 04:13 248 3 gusting 5 16.1
2020-Jul-09 04:08 270 3 gusting 3 16.1
2020-Jul-09 04:03 248 2 gusting 5 16.1
2020-Jul-09 03:58 203 2 gusting 6 16.1
2020-Jul-09 03:53 270 2 gusting 5 16.1
2020-Jul-09 03:48 248 2 gusting 2 16.1
2020-Jul-09 03:43 225 1 gusting 3 16.1
2020-Jul-09 03:38 270 1 gusting 1 16.1
2020-Jul-09 03:33 270 1 gusting 1 16.1
2020-Jul-09 03:28 270 1 gusting 1 16.1
2020-Jul-09 03:23 248 1 gusting 2 16.1
2020-Jul-09 03:18 248 1 gusting 2 15.6
2020-Jul-09 03:13 248 1 gusting 2 15.6
2020-Jul-09 03:08 248 1 gusting 1 15.6
2020-Jul-09 03:03 248 1 gusting 1 15.6
2020-Jul-09 02:58 270 0 gusting 2 15.6
2020-Jul-09 02:53 248 1 gusting 1 15.6
2020-Jul-09 02:48 248 1 gusting 1 15.6
2020-Jul-09 02:43 270 1 gusting 1 15.6
2020-Jul-09 02:38 270 0 gusting 1 15.6
2020-Jul-09 02:33 270 0 gusting 1 15.6
2020-Jul-09 02:27 248 1 gusting 1 15.6
2020-Jul-09 02:22 248 2 gusting 2 15.6
2020-Jul-09 02:17 225 2 gusting 3 15.0
2020-Jul-09 02:12 248 1 gusting 2 15.0
2020-Jul-09 02:07 248 1 gusting 2 15.0
2020-Jul-09 02:02 225 1 gusting 2 15.0
2020-Jul-09 01:57 248 1 gusting 2 14.4
2020-Jul-09 01:52 225 1 gusting 1 14.4
2020-Jul-09 01:47 225 1 gusting 1 14.4
2020-Jul-09 01:42 225 1 gusting 1 14.4
2020-Jul-09 01:37 225 1 gusting 1 14.4
2020-Jul-09 01:35 225 1 gusting 1 15.0
2020-Jul-09 01:30 225 1 gusting 3 15.0
2020-Jul-09 01:24 225 1 gusting 1 15.0
2020-Jul-09 01:19 225 1 gusting 2 15.0
2020-Jul-09 01:14 225 1 gusting 2 15.0
2020-Jul-09 01:09 225 2 gusting 3 15.0
2020-Jul-09 01:04 225 2 gusting 2 15.0
2020-Jul-09 00:59 225 2 gusting 3 15.0
2020-Jul-09 00:54 203 1 gusting 2 15.0
2020-Jul-09 00:49 225 1 gusting 1 15.0
2020-Jul-09 00:44 225 1 gusting 2 15.0
2020-Jul-09 00:39 225 1 gusting 2 15.0
2020-Jul-09 00:34 248 1 gusting 1 15.0
2020-Jul-09 00:29 225 1 gusting 1 15.0
2020-Jul-09 00:24 225 0 gusting 0 15.0
2020-Jul-09 00:19 225 0 gusting 1 15.6
2020-Jul-09 00:14 225 0 gusting 0 15.6
2020-Jul-09 00:09 248 0 gusting 0 15.6
2020-Jul-09 00:04 248 0 gusting 0 15.6
2020-Jul-08 23:59 225 0 gusting 1 15.6
2020-Jul-08 23:54 225 0 gusting 0 15.6
2020-Jul-08 23:49 225 0 gusting 0 15.6
2020-Jul-08 23:44 248 0 gusting 1 15.6
2020-Jul-08 23:39 248 0 gusting 1 15.6
2020-Jul-08 23:34 225 0 gusting 1 15.6
2020-Jul-08 23:29 248 0 gusting 2 16.1
2020-Jul-08 23:24 248 0 gusting 0 16.1
2020-Jul-08 23:19 248 0 gusting 0 16.1
2020-Jul-08 23:14 248 1 gusting 1 16.1
2020-Jul-08 23:09 248 1 gusting 2 16.1
2020-Jul-08 23:04 248 1 gusting 1 16.1
2020-Jul-08 22:59 248 1 gusting 1 16.1
2020-Jul-08 22:54 248 1 gusting 1 16.1
2020-Jul-08 22:49 248 0 gusting 1 16.1
2020-Jul-08 22:44 248 0 gusting 1 16.7
2020-Jul-08 22:39 270 0 gusting 0 16.7
2020-Jul-08 22:34 248 0 gusting 2 16.7
2020-Jul-08 22:29 248 0 gusting 1 16.7
2020-Jul-08 22:24 248 0 gusting 0 16.7
2020-Jul-08 22:19 248 0 gusting 0 16.7
2020-Jul-08 22:14 270 0 gusting 0 16.7
2020-Jul-08 22:09 248 0 gusting 0 16.7
2020-Jul-08 22:04 248 0 gusting 0 16.7
2020-Jul-08 21:56 248 0 gusting 0 16.7
2020-Jul-08 21:51 248 1 gusting 1 17.2
2020-Jul-08 21:46 248 0 gusting 1 17.2
2020-Jul-08 21:41 248 0 gusting 0 17.2
2020-Jul-08 21:36 270 0 gusting 1 17.2
2020-Jul-08 21:31 248 0 gusting 0 17.2
2020-Jul-08 21:26 248 0 gusting 0 17.2
2020-Jul-08 21:21 270 17.2
2020-Jul-08 21:16 270 0 gusting 1 17.8
2020-Jul-08 21:11 248 0 gusting 0 17.8
2020-Jul-08 21:06 248 0 gusting 1 17.8
2020-Jul-08 21:01 248 1 gusting 1 17.8
2020-Jul-08 20:56 248 1 gusting 1 18.3
2020-Jul-08 20:51 270 1 gusting 1 18.3
2020-Jul-08 20:46 248 1 gusting 1 18.3
2020-Jul-08 20:41 248 0 gusting 0 18.3
2020-Jul-08 20:36 248 0 gusting 1 18.9
2020-Jul-08 20:31 248 1 gusting 1 18.9
2020-Jul-08 20:26 248 1 gusting 1 18.9
2020-Jul-08 20:21 248 1 gusting 1 19.4
2020-Jul-08 20:16 248 2 gusting 2 19.4
2020-Jul-08 20:11 270 2 gusting 2 19.4
2020-Jul-08 20:06 248 2 gusting 2 19.4
2020-Jul-08 20:01 248 2 gusting 4 19.4
2020-Jul-08 19:56 248 3 gusting 3 20.0
2020-Jul-08 19:51 270 2 gusting 6 20.0
2020-Jul-08 19:46 270 2 gusting 4 20.0
2020-Jul-08 19:41 270 2 gusting 2 20.0
2020-Jul-08 19:36 270 2 gusting 2 20.6
2020-Jul-08 19:31 293 2 gusting 4 20.6
2020-Jul-08 19:26 293 2 gusting 4 20.6
2020-Jul-08 19:21 248 1 gusting 4 20.6
2020-Jul-08 19:16 248 1 gusting 1 21.1
2020-Jul-08 19:11 248 2 gusting 2 21.1
2020-Jul-08 19:06 270 2 gusting 2 21.1
2020-Jul-08 19:01 248 2 gusting 3 21.1
2020-Jul-08 18:56 248 1 gusting 5 21.7
2020-Jul-08 18:51 248 1 gusting 1 21.7
2020-Jul-08 18:46 248 2 gusting 2 21.7
2020-Jul-08 18:41 270 3 gusting 3 21.7
2020-Jul-08 18:36 270 2 gusting 5 22.2
2020-Jul-08 18:31 248 3 gusting 5 22.2
2020-Jul-08 18:26 248 2 gusting 2 22.2
2020-Jul-08 18:21 270 2 gusting 4 22.8
2020-Jul-08 18:16 270 2 gusting 2 22.8
2020-Jul-08 18:11 293 3 gusting 3 22.8
2020-Jul-08 18:06 045 4 gusting 4 23.3
2020-Jul-08 18:00 293 3 gusting 3 23.3
2020-Jul-08 17:55 293 3 gusting 3 23.3
2020-Jul-08 17:50 293 3 gusting 7 23.3
2020-Jul-08 17:45 293 4 gusting 5 23.9
2020-Jul-08 17:40 315 5 gusting 7 23.9
2020-Jul-08 17:35 293 5 gusting 5 23.9
2020-Jul-08 17:30 225 5 gusting 6 23.9
2020-Jul-08 17:25 270 5 gusting 6 23.9
2020-Jul-08 17:20 248 4 gusting 6 23.9
2020-Jul-08 17:15 270 4 gusting 6 23.9
2020-Jul-08 17:10 270 3 gusting 6 23.9
2020-Jul-08 17:05 293 3 gusting 4 23.3
2020-Jul-08 17:00 293 4 gusting 4 23.3
2020-Jul-08 16:55 293 5 gusting 7 23.3
2020-Jul-08 16:50 270 5 gusting 8 23.3
2020-Jul-08 16:45 297 4 gusting 6 22.8
2020-Jul-08 16:40 293 4 gusting 6 22.8
2020-Jul-08 16:35 293 4 gusting 6 23.3
2020-Jul-08 16:30 270 4 gusting 6 23.3
2020-Jul-08 16:25 315 4 gusting 5 23.3
2020-Jul-08 16:20 248 4 gusting 6 23.3
2020-Jul-08 16:15 293 3 gusting 3 23.3
2020-Jul-08 16:10 248 3 gusting 4 23.3
2020-Jul-08 16:05 293 3 gusting 3 23.3
2020-Jul-08 16:00 315 4 gusting 4 23.3
2020-Jul-08 15:55 293 5 gusting 5 23.3
2020-Jul-08 15:50 315 4 gusting 5 23.3
2020-Jul-08 15:45 248 5 gusting 6 23.9
2020-Jul-08 15:40 293 5 gusting 5 23.9
2020-Jul-08 15:35 311 4 gusting 7 23.9
2020-Jul-08 15:30 248 4 gusting 5 23.9
2020-Jul-08 15:25 315 4 gusting 5 23.9
2020-Jul-08 15:20 290 4 gusting 7 23.9
2020-Jul-08 15:15 293 4 gusting 4 23.9
2020-Jul-08 15:10 270 4 gusting 4 24.4
2020-Jul-08 15:05 248 5 gusting 5 24.4
2020-Jul-08 15:00 315 4 gusting 4 23.9
2020-Jul-08 14:55 293 4 gusting 5 23.9
2020-Jul-08 14:50 248 5 gusting 6 23.9
2020-Jul-08 14:45 248 4 gusting 7 23.9
2020-Jul-08 14:40 270 4 gusting 7 23.9
2020-Jul-08 14:35 293 4 gusting 4 23.9
2020-Jul-08 14:30 293 4 gusting 5 24.4
2020-Jul-08 14:25 248 4 gusting 6 24.4
2020-Jul-08 14:20 248 3 gusting 4 24.4
2020-Jul-08 14:15 225 3 gusting 5 23.9
2020-Jul-08 14:10 270 3 gusting 3 23.3
2020-Jul-08 14:05 225 3 gusting 4 23.3
2020-Jul-08 14:00 270 3 gusting 5 23.3
2020-Jul-08 13:55 270 2 gusting 4 22.8
2020-Jul-08 13:50 270 3 gusting 3 22.8
2020-Jul-08 13:45 293 4 gusting 4 22.8
2020-Jul-08 13:40 293 4 gusting 4 22.8
2020-Jul-08 13:35 270 4 gusting 5 22.8
2020-Jul-08 13:30 270 4 gusting 7 22.8
2020-Jul-08 13:06 270 3 gusting 4 23.9
2020-Jul-08 13:01 270 4 gusting 4 23.3
2020-Jul-08 12:56 293 4 gusting 6 23.3
2020-Jul-08 12:51 293 4 gusting 4 22.8
2020-Jul-08 12:46 293 5 gusting 8 22.8
2020-Jul-08 12:41 293 5 gusting 6 22.8
2020-Jul-08 12:36 248 5 gusting 6 22.8
2020-Jul-08 12:31 270 5 gusting 6 22.8
2020-Jul-08 12:26 293 4 gusting 6 23.3
2020-Jul-08 12:21 248 5 gusting 5 23.3
2020-Jul-08 12:16 315 6 gusting 7 23.9
2020-Jul-08 12:11 293 7 gusting 7 23.3
2020-Jul-08 12:06 270 6 gusting 6 23.3
2020-Jul-08 12:01 248 5 gusting 8 23.3